EW2138 Weather Reports


Display with metric or nautical units.
time (UTC)temp
F
wind
direction
speed
MPH
gust
MPH
rain 1hr
in
rain 24hr
in
rain mn
in
humidity
%
barometer
mb
20260507083036 39 226 0.0 3.0 0.00 0.55 0.01 99 1006.2
20260507081542 38 232 0.0 0.0 0.00 0.55 0.01 99 1006.4
20260507080036 38 342 0.0 0.0 0.00 0.55 0.01 99 1006.4
20260507074534 38 355 0.0 0.0 0.00 0.55 0.01 99 1006.3
20260507073033 38 325 0.0 1.0 0.00 0.55 0.01 99 1006.3
20260507071535 38 61 0.0 0.0 0.00 0.55 0.01 99 1006.2
20260507070034 38 61 0.0 0.0 0.00 0.55 0.01 99 1006.1
20260507064540 38 59 0.0 2.0 0.00 0.56 0.01 99 1005.8
20260507063030 38 63 0.0 0.0 0.00 0.56 0.01 99 1006.0
20260507061533 39 104 0.0 0.0 0.00 0.56 0.01 99 1005.9
20260507060026 38 99 0.0 1.0 0.00 0.56 0.01 99 1006.1
20260507054526 39 96 0.0 0.0 0.01 0.56 0.01 99 1006.0
20260507053032 39 64 0.0 0.0 0.01 0.56 0.01 99 1006.4
20260507051523 39 64 0.0 1.0 0.01 0.56 0.01 99 1006.6
20260507050022 39 64 0.0 0.0 0.01 0.56 0.01 99 1006.5
20260507044521 39 64 0.0 2.0 0.00 0.59 0.00 99 1006.6
20260507043020 39 5 0.0 0.0 0.00 0.59 0.00 99 1006.6
20260507041517 39 21 0.0 3.0 0.00 0.59 0.00 99 1006.4
20260507040016 39 340 0.0 1.0 0.00 0.59 0.00 99 1006.5
20260507034514 39 132 0.0 2.0 0.00 0.62 0.59 99 1006.4
20260507033012 39 63 0.0 1.0 0.00 0.62 0.59 99 1006.4
20260507031510 40 90 0.0 0.0 0.00 0.62 0.59 99 1006.7
20260507030004 40 76 0.0 1.0 0.00 0.62 0.59 99 1006.2
20260507024503 40 98 0.0 0.0 0.00 0.62 0.59 99 1006.4
20260507023001 40 98 0.0 0.0 0.00 0.62 0.59 99 1006.8
20260507021608 40 98 0.0 0.0 0.01 0.62 0.59 99 1006.6
20260507020059 40 98 0.0 1.0 0.01 0.62 0.59 99 1006.6
20260507014559 40 65 0.0 1.0 0.02 0.62 0.59 99 1006.7
20260507013115 40 315 0.0 1.0 0.02 0.62 0.59 99 1006.7
20260507011556 40 317 0.0 0.0 0.01 0.61 0.57 99 1006.7
20260507010055 40 294 0.0 0.0 0.01 0.61 0.57 99 1006.6
20260507004554 40 142 0.0 0.0 0.01 0.60 0.56 99 1006.3
20260507003052 40 140 0.0 0.0 0.01 0.60 0.56 99 1005.9
20260507001608 41 69 0.0 0.0 0.02 0.60 0.56 99 1005.6
20260507000050 41 259 0.0 0.0 0.02 0.60 0.56 99 1005.5
20260506234557 41 88 0.0 0.0 0.01 0.59 0.56 99 1005.0
20260506233047 41 324 0.0 0.0 0.02 0.59 0.56 99 1005.0
20260506231546 41 324 0.0 1.0 0.02 0.57 0.55 99 1004.7
20260506230044 41 331 0.0 0.0 0.02 0.57 0.55 99 1004.6
20260506224557 41 346 0.0 0.0 0.03 0.57 0.55 99 1004.4
20260506223041 42 318 0.0 0.0 0.02 0.56 0.54 99 1004.5
20260506221539 42 315 0.0 0.0 0.02 0.56 0.53 99 1004.2
20260506220045 42 259 0.0 0.0 0.03 0.56 0.53 99 1004.0
20260506214537 43 340 0.0 0.0 0.03 0.56 0.52 99 1004.1
20260506213036 43 342 0.0 0.0 0.04 0.56 0.52 99 1004.0
20260506211536 43 342 0.0 0.0 0.04 0.56 0.51 99 1003.9
20260506210035 43 307 0.0 0.0 0.03 0.55 0.50 99 1003.9
20260506204538 43 307 0.0 0.0 0.04 0.60 0.49 99 1003.9
20260506203033 43 307 0.0 0.0 0.04 0.59 0.48 99 1003.9
20260506201532 43 307 0.0 0.0 0.04 0.57 0.47 99 1003.8
20260506200032 43 291 0.0 0.0 0.05 0.57 0.47 99 1003.8
20260506194536 43 350 0.0 0.0 0.04 0.59 0.45 99 1003.8
20260506193030 43 350 0.0 0.0 0.05 0.57 0.44 99 1003.8
20260506191528 43 350 0.0 0.0 0.05 0.56 0.43 98 1003.9
20260506190027 43 5 0.0 0.0 0.05 0.56 0.42 98 1003.8
20260506184529 43 338 0.0 0.0 0.06 0.55 0.41 99 1003.7
20260506183027 43 338 0.0 0.0 0.05 0.53 0.39 99 1003.7
20260506181523 44 338 0.0 0.0 0.06 0.52 0.38 98 1003.8
20260506180022 44 5 0.0 0.0 0.06 0.51 0.37 99 1003.9
20260506174521 44 5 0.0 0.0 0.06 0.49 0.35 98 1004.1
20260506173023 44 11 0.0 0.0 0.06 0.48 0.34 98 1004.1
20260506171525 45 335 0.0 0.0 0.05 0.46 0.32 98 1004.0
20260506170020 45 169 0.0 0.0 0.06 0.45 0.31 98 1003.9
20260506164520 45 111 0.0 0.0 0.05 0.43 0.28 98 1004.0
20260506163017 44 110 0.0 0.0 0.05 0.42 0.28 98 1003.9
20260506161512 45 46 0.0 0.0 0.05 0.41 0.27 98 1004.1
20260506160009 45 46 0.0 0.0 0.04 0.39 0.25 98 1004.4
20260506154514 46 288 0.0 0.0 0.05 0.38 0.24 99 1004.0
20260506153003 45 286 0.0 0.0 0.04 0.37 0.23 98 1004.3
20260506151600 46 313 0.0 0.0 0.05 0.36 0.22 98 1004.3
20260506150104 46 313 0.0 0.0 0.05 0.35 0.21 98 1004.4
20260506144556 46 313 0.0 0.0 0.04 0.35 0.19 98 1004.5
20260506143055 47 313 0.0 0.0 0.05 0.35 0.19 98 1004.7
20260506141555 47 313 0.0 0.0 0.04 0.33 0.17 98 1004.7
20260506140055 47 49 0.0 0.0 0.05 0.32 0.16 98 1004.4
20260506134554 47 57 0.0 0.0 0.05 0.31 0.15 98 1004.5
20260506133101 47 57 0.0 3.0 0.05 0.30 0.14 98 1004.7
20260506131559 47 92 0.0 0.0 0.05 0.28 0.13 98 1004.8
20260506130054 47 167 0.0 0.0 0.04 0.27 0.11 98 1005.0
20260506124549 47 167 0.0 0.0 0.03 0.26 0.10 98 1005.1
20260506123048 47 167 0.0 0.0 0.03 0.25 0.09 98 1005.4
20260506121546 48 167 0.0 0.0 0.02 0.24 0.08 98 1005.1
20260506120046 48 167 0.0 0.0 0.01 0.23 0.07 98 1005.2
20260506114544 48 167 0.0 0.0 0.02 0.23 0.07 98 1005.3
20260506113043 49 166 0.0 0.0 0.01 0.22 0.06 98 1005.2
20260506111540 49 72 0.0 0.0 0.01 0.22 0.06 98 1005.3
20260506110040 49 115 0.0 2.0 0.01 0.22 0.06 98 1005.0
20260506104546 49 123 0.0 0.0 0.00 0.21 0.05 98 1005.1
20260506103040 49 212 0.0 0.0 0.00 0.21 0.05 98 1004.9
20260506101537 49 95 0.0 0.0 0.00 0.21 0.05 98 1004.9
20260506100039 49 95 0.0 0.0 0.00 0.21 0.05 98 1005.3
20260506094546 49 100 0.0 0.0 0.00 0.21 0.05 98 1005.0
20260506093038 49 61 0.0 0.0 0.00 0.21 0.05 97 1005.5
20260506091533 49 61 0.0 0.0 0.00 0.21 0.05 97 1005.4
20260506090031 49 61 0.0 0.0 0.00 0.21 0.05 97 1005.4
20260506084531 50 60 0.0 0.0 0.00 0.21 0.05 97 1005.5